Year,Month,Day,Hour,Minute,Value (Times are PST for temperature in C)
2015,06,09,00,00,16.20
2015,06,09,00,01,16.20
2015,06,09,00,02,16.20
2015,06,09,00,03,16.10
2015,06,09,00,04,16.10
2015,06,09,00,05,16.10
2015,06,09,00,06,16.10
2015,06,09,00,07,16.10
2015,06,09,00,08,16.10
2015,06,09,00,09,16.10
2015,06,09,00,10,15.90
2015,06,09,00,11,15.90
2015,06,09,00,12,15.90
2015,06,09,00,13,15.80
2015,06,09,00,14,15.80
2015,06,09,00,15,15.80
2015,06,09,00,16,15.80
2015,06,09,00,17,15.70
2015,06,09,00,18,15.70
2015,06,09,00,19,15.70
2015,06,09,00,20,15.60
2015,06,09,00,21,15.60
2015,06,09,00,22,15.60
2015,06,09,00,23,15.60
2015,06,09,00,24,15.60
2015,06,09,00,25,15.50
2015,06,09,00,26,15.50
2015,06,09,00,27,15.50
2015,06,09,00,28,15.50
2015,06,09,00,29,15.40
2015,06,09,00,30,15.40
2015,06,09,00,31,15.40
2015,06,09,00,32,15.40
2015,06,09,00,33,15.40
2015,06,09,00,34,15.40
2015,06,09,00,35,15.40
2015,06,09,00,36,15.30
2015,06,09,00,37,15.30
2015,06,09,00,38,15.30
2015,06,09,00,39,15.30
2015,06,09,00,40,15.30
2015,06,09,00,41,15.30
2015,06,09,00,42,15.30
2015,06,09,00,43,15.30
2015,06,09,00,44,15.20
2015,06,09,00,45,15.20
2015,06,09,00,46,15.20
2015,06,09,00,47,15.20
2015,06,09,00,48,15.10
2015,06,09,00,49,15.10
2015,06,09,00,50,15.10
2015,06,09,00,51,15.00
2015,06,09,00,52,15.00
2015,06,09,00,53,15.00
2015,06,09,00,54,15.00
2015,06,09,00,55,15.00
2015,06,09,00,56,15.00
2015,06,09,00,57,15.00
2015,06,09,00,58,15.00
2015,06,09,00,59,15.00
2015,06,09,01,00,15.00
2015,06,09,01,01,15.00
2015,06,09,01,02,15.00
2015,06,09,01,03,15.00
2015,06,09,01,04,15.00
2015,06,09,01,05,15.00
2015,06,09,01,06,15.00
2015,06,09,01,07,15.00
2015,06,09,01,08,15.00
2015,06,09,01,09,15.00
2015,06,09,01,10,15.00
2015,06,09,01,11,15.00
2015,06,09,01,12,15.00
2015,06,09,01,13,15.00
2015,06,09,01,14,15.00
2015,06,09,01,15,15.00
2015,06,09,01,16,15.00
2015,06,09,01,17,15.00
2015,06,09,01,18,15.00
2015,06,09,01,19,15.00
2015,06,09,01,20,15.10
2015,06,09,01,21,15.10
2015,06,09,01,22,15.10
2015,06,09,01,23,15.10
2015,06,09,01,24,15.10
2015,06,09,01,25,15.10
2015,06,09,01,26,15.10
2015,06,09,01,27,15.10
2015,06,09,01,28,15.10
2015,06,09,01,29,15.10
2015,06,09,01,30,15.10
2015,06,09,01,31,15.10
2015,06,09,01,32,15.10
2015,06,09,01,33,15.10
2015,06,09,01,34,15.10
2015,06,09,01,35,15.10
2015,06,09,01,36,15.10
2015,06,09,01,37,15.10
2015,06,09,01,38,15.00
2015,06,09,01,39,15.00
2015,06,09,01,40,15.00
2015,06,09,01,41,15.00
2015,06,09,01,42,15.00
2015,06,09,01,43,15.00
2015,06,09,01,44,14.90
2015,06,09,01,45,14.90
2015,06,09,01,46,14.90
2015,06,09,01,47,14.90
2015,06,09,01,48,14.80
2015,06,09,01,49,14.80
2015,06,09,01,50,14.80
2015,06,09,01,51,14.80
2015,06,09,01,52,14.80
2015,06,09,01,53,14.80
2015,06,09,01,54,14.80
2015,06,09,01,55,14.80
2015,06,09,01,56,14.80
2015,06,09,01,57,14.90
2015,06,09,01,58,14.90
2015,06,09,01,59,14.90
2015,06,09,02,00,14.90
2015,06,09,02,01,14.90
2015,06,09,02,02,14.90
2015,06,09,02,03,14.90
2015,06,09,02,04,14.90
2015,06,09,02,05,14.90
2015,06,09,02,06,14.90
2015,06,09,02,07,14.80
2015,06,09,02,08,14.80
2015,06,09,02,09,14.80
2015,06,09,02,10,14.80
2015,06,09,02,11,14.80
2015,06,09,02,12,14.80
2015,06,09,02,13,14.90
2015,06,09,02,14,14.80
2015,06,09,02,15,14.80
2015,06,09,02,16,14.80
2015,06,09,02,17,14.80
2015,06,09,02,18,14.80
2015,06,09,02,19,14.80
2015,06,09,02,20,14.70
2015,06,09,02,21,14.70
2015,06,09,02,22,14.60
2015,06,09,02,23,14.60
2015,06,09,02,24,14.50
2015,06,09,02,25,14.50
2015,06,09,02,26,14.50
2015,06,09,02,27,14.40
2015,06,09,02,28,14.40
2015,06,09,02,29,14.30
2015,06,09,02,30,14.20
2015,06,09,02,31,14.20
2015,06,09,02,32,14.20
2015,06,09,02,33,14.10
2015,06,09,02,34,14.10
2015,06,09,02,35,14.00
2015,06,09,02,36,14.00
2015,06,09,02,37,13.90
2015,06,09,02,38,13.90
2015,06,09,02,39,13.90
2015,06,09,02,40,13.80
2015,06,09,02,41,13.80
2015,06,09,02,42,13.70
2015,06,09,02,43,13.70
2015,06,09,02,44,13.70
2015,06,09,02,45,13.70
2015,06,09,02,46,13.70
2015,06,09,02,47,13.60
2015,06,09,02,48,13.60
2015,06,09,02,49,13.50
2015,06,09,02,50,13.50
2015,06,09,02,51,13.50
2015,06,09,02,52,13.40
2015,06,09,02,53,13.40
2015,06,09,02,54,13.30
2015,06,09,02,55,13.30
2015,06,09,02,56,13.30
2015,06,09,02,57,13.30
2015,06,09,02,58,13.30
2015,06,09,02,59,13.30
2015,06,09,03,00,13.30
2015,06,09,03,01,13.30
2015,06,09,03,02,13.30
2015,06,09,03,03,13.30
2015,06,09,03,04,13.30
2015,06,09,03,05,13.30
2015,06,09,03,06,13.30
2015,06,09,03,07,13.30
2015,06,09,03,08,13.30
2015,06,09,03,09,13.30
2015,06,09,03,10,13.30
2015,06,09,03,11,13.40
2015,06,09,03,12,13.40
2015,06,09,03,13,13.40
2015,06,09,03,14,13.40
2015,06,09,03,15,13.40
2015,06,09,03,16,13.30
2015,06,09,03,17,13.30
2015,06,09,03,18,13.30
2015,06,09,03,19,13.30
2015,06,09,03,20,13.30
2015,06,09,03,21,13.40
2015,06,09,03,22,13.40
2015,06,09,03,23,13.40
2015,06,09,03,24,13.40
2015,06,09,03,25,13.40
2015,06,09,03,26,13.40
2015,06,09,03,27,13.40
2015,06,09,03,28,13.40
2015,06,09,03,29,13.40
2015,06,09,03,30,13.30
2015,06,09,03,31,13.30
2015,06,09,03,32,13.30
2015,06,09,03,33,13.30
2015,06,09,03,34,13.30
2015,06,09,03,35,13.30
2015,06,09,03,36,13.30
2015,06,09,03,37,13.30
2015,06,09,03,38,13.30
2015,06,09,03,39,13.30
2015,06,09,03,40,13.30
2015,06,09,03,41,13.30
2015,06,09,03,42,13.30
2015,06,09,03,43,13.30
2015,06,09,03,44,13.30
2015,06,09,03,45,13.30
2015,06,09,03,46,13.30
2015,06,09,03,47,13.30
2015,06,09,03,48,13.30
2015,06,09,03,49,13.30
2015,06,09,03,50,13.30
2015,06,09,03,51,13.30
2015,06,09,03,52,13.30
2015,06,09,03,53,13.30
2015,06,09,03,54,13.30
2015,06,09,03,55,13.30
2015,06,09,03,56,13.30
2015,06,09,03,57,13.30
2015,06,09,03,58,13.30
2015,06,09,03,59,13.30
2015,06,09,04,00,13.30
2015,06,09,04,01,13.30
2015,06,09,04,02,13.30
2015,06,09,04,03,13.30
2015,06,09,04,04,13.30
2015,06,09,04,05,13.20
2015,06,09,04,06,13.20
2015,06,09,04,07,13.20
2015,06,09,04,08,13.20
2015,06,09,04,09,13.20
2015,06,09,04,10,13.10
2015,06,09,04,11,13.10
2015,06,09,04,12,13.10
2015,06,09,04,13,13.10
2015,06,09,04,14,13.10
2015,06,09,04,15,13.00
2015,06,09,04,16,13.00
2015,06,09,04,17,13.00
2015,06,09,04,18,13.00
2015,06,09,04,19,13.00
2015,06,09,04,20,13.00
2015,06,09,04,21,12.90
2015,06,09,04,22,12.90
2015,06,09,04,23,12.90
2015,06,09,04,24,12.90
2015,06,09,04,25,12.80
2015,06,09,04,26,12.80
2015,06,09,04,27,12.80
2015,06,09,04,28,12.80
2015,06,09,04,29,12.80
2015,06,09,04,30,12.80
2015,06,09,04,31,12.80
2015,06,09,04,32,12.70
2015,06,09,04,33,12.70
2015,06,09,04,34,12.70
2015,06,09,04,35,12.70
2015,06,09,04,36,12.60
2015,06,09,04,37,12.60
2015,06,09,04,38,12.60
2015,06,09,04,39,12.60
2015,06,09,04,40,12.60
2015,06,09,04,41,12.60
2015,06,09,04,42,12.60
2015,06,09,04,43,12.50
2015,06,09,04,44,12.50
2015,06,09,04,45,12.50
2015,06,09,04,46,12.50
2015,06,09,04,47,12.50
2015,06,09,04,48,12.50
2015,06,09,04,49,12.40
2015,06,09,04,50,12.40
2015,06,09,04,51,12.40
2015,06,09,04,52,12.40
2015,06,09,04,53,12.40
2015,06,09,04,54,12.30
2015,06,09,04,55,12.30
2015,06,09,04,56,12.30
2015,06,09,04,57,12.30
2015,06,09,04,58,12.30
2015,06,09,04,59,12.30
2015,06,09,05,00,12.30
2015,06,09,05,01,12.30
2015,06,09,05,02,12.30
2015,06,09,05,03,12.20
2015,06,09,05,04,12.20
2015,06,09,05,05,12.20
2015,06,09,05,06,12.20
2015,06,09,05,07,12.20
2015,06,09,05,08,12.20
2015,06,09,05,09,12.20
2015,06,09,05,10,12.20
2015,06,09,05,11,12.20
2015,06,09,05,12,12.20
2015,06,09,05,13,12.20
2015,06,09,12,39,20.80
2015,06,09,12,40,20.80
2015,06,09,12,41,20.80
2015,06,09,12,42,21.00
2015,06,09,12,43,21.10
2015,06,09,12,44,21.20
2015,06,09,12,45,21.30
2015,06,09,12,46,21.30
2015,06,09,12,47,21.10
2015,06,09,12,48,21.00
2015,06,09,12,49,20.80
2015,06,09,12,50,20.80
2015,06,09,12,51,20.80
2015,06,09,12,52,20.80
2015,06,09,12,53,20.90
2015,06,09,12,54,20.80
2015,06,09,12,55,20.80
2015,06,09,12,56,20.90
2015,06,09,12,57,20.80
2015,06,09,12,58,20.70
2015,06,09,12,59,20.80
2015,06,09,13,00,20.70
2015,06,09,13,01,20.80
2015,06,09,13,02,20.80
2015,06,09,13,03,20.90
2015,06,09,13,04,21.00
2015,06,09,13,05,20.90
2015,06,09,13,06,20.80
2015,06,09,13,07,20.70
2015,06,09,13,08,20.70
2015,06,09,13,09,20.70
2015,06,09,13,10,20.80
2015,06,09,13,11,20.90
2015,06,09,13,12,21.00
2015,06,09,13,13,21.10
2015,06,09,13,14,21.10
2015,06,09,13,15,21.30
2015,06,09,13,16,21.30
2015,06,09,13,17,21.20
2015,06,09,13,18,21.10
2015,06,09,13,19,21.10
2015,06,09,13,20,21.10
2015,06,09,13,21,21.10
2015,06,09,13,22,21.20
2015,06,09,13,23,21.30
2015,06,09,13,24,21.30
2015,06,09,13,25,21.30
2015,06,09,13,26,21.40
2015,06,09,13,27,21.40
2015,06,09,13,28,21.30
2015,06,09,13,29,21.30
2015,06,09,13,30,21.30
2015,06,09,13,31,21.30
2015,06,09,13,32,21.30
2015,06,09,13,33,21.30
2015,06,09,13,34,21.30
2015,06,09,13,35,21.30
2015,06,09,13,36,21.30
2015,06,09,13,37,21.20
2015,06,09,13,38,21.30
2015,06,09,13,39,21.30
2015,06,09,13,40,21.30
2015,06,09,13,41,21.40
2015,06,09,13,42,21.60
2015,06,09,13,43,21.60
2015,06,09,13,44,21.70
2015,06,09,13,45,21.70
2015,06,09,13,46,21.80
2015,06,09,13,47,22.00
2015,06,09,13,48,22.10
2015,06,09,13,49,22.00
2015,06,09,13,50,21.90
2015,06,09,13,51,21.80
2015,06,09,13,52,21.80
2015,06,09,13,53,21.80
2015,06,09,13,54,21.80
2015,06,09,13,55,21.80
2015,06,09,13,56,21.70
2015,06,09,13,57,21.50
2015,06,09,13,58,21.40
2015,06,09,13,59,21.30
2015,06,09,14,00,21.20
2015,06,09,14,01,21.20
2015,06,09,14,02,21.20
2015,06,09,14,03,21.30
2015,06,09,14,04,21.30
2015,06,09,14,05,21.40
2015,06,09,14,06,21.30
2015,06,09,14,07,21.30
2015,06,09,14,08,21.30
2015,06,09,14,09,21.40
2015,06,09,14,10,21.40
2015,06,09,14,11,21.50
2015,06,09,14,12,21.60
2015,06,09,14,13,21.60
2015,06,09,14,14,21.60
2015,06,09,14,15,21.60
2015,06,09,14,16,21.70
2015,06,09,14,17,21.80
2015,06,09,14,18,21.70
2015,06,09,14,19,21.60
2015,06,09,14,20,21.40
2015,06,09,14,21,21.10
2015,06,09,14,22,21.00
2015,06,09,14,23,21.00
2015,06,09,14,24,20.90
2015,06,09,14,25,20.90
2015,06,09,14,26,21.00
2015,06,09,14,27,20.90
2015,06,09,14,28,20.90
2015,06,09,14,29,21.00
2015,06,09,14,30,21.00
2015,06,09,14,31,20.90
2015,06,09,14,32,20.80
2015,06,09,14,33,20.90
2015,06,09,14,34,21.00
2015,06,09,14,35,21.20
2015,06,09,14,36,21.30
2015,06,09,14,37,21.40
2015,06,09,14,38,21.60
2015,06,09,14,39,21.80
2015,06,09,14,40,21.70
2015,06,09,14,41,21.60
2015,06,09,14,42,21.50
2015,06,09,14,43,21.30
2015,06,09,14,44,21.30
2015,06,09,14,45,21.20
2015,06,09,14,46,21.20
2015,06,09,14,47,21.20
2015,06,09,14,48,21.30
2015,06,09,14,49,21.30
2015,06,09,14,50,21.30
2015,06,09,14,51,21.20
2015,06,09,14,52,21.20
2015,06,09,14,53,21.20
2015,06,09,14,54,21.30
2015,06,09,14,55,21.30
2015,06,09,14,56,21.40
2015,06,09,14,57,21.60
2015,06,09,14,58,21.60
2015,06,09,14,59,21.60
2015,06,09,15,00,21.60
2015,06,09,15,01,21.60
2015,06,09,15,02,21.60
2015,06,09,15,03,21.60
2015,06,09,15,04,21.70
2015,06,09,15,05,21.70
2015,06,09,15,06,21.70
2015,06,09,15,07,21.60
2015,06,09,15,08,21.80
2015,06,09,15,09,21.80
2015,06,09,15,10,21.80
2015,06,09,15,11,21.80
2015,06,09,15,12,21.90
2015,06,09,15,13,22.10
2015,06,09,15,14,22.30
2015,06,09,15,15,22.30
2015,06,09,15,16,22.30
2015,06,09,15,17,22.30
2015,06,09,15,18,22.30
2015,06,09,15,19,22.30
2015,06,09,15,20,22.20
2015,06,09,15,21,22.10
2015,06,09,15,22,22.20
2015,06,09,15,23,22.40
2015,06,09,15,24,22.40
2015,06,09,15,25,22.50
2015,06,09,15,26,22.40
2015,06,09,15,27,22.30
2015,06,09,15,28,22.40
2015,06,09,15,29,22.40
2015,06,09,15,30,22.30
2015,06,09,15,31,22.30
2015,06,09,15,32,22.20
2015,06,09,15,33,22.30
2015,06,09,15,34,22.30
2015,06,09,15,35,22.40
2015,06,09,15,36,22.40
2015,06,09,15,37,22.40
2015,06,09,15,38,22.40
2015,06,09,15,39,22.30
2015,06,09,15,40,22.30
2015,06,09,15,41,22.40
2015,06,09,15,42,22.40
2015,06,09,15,43,22.50
2015,06,09,15,44,22.60
2015,06,09,15,45,22.60
2015,06,09,15,46,22.50
2015,06,09,15,47,22.40
2015,06,09,15,48,22.40
2015,06,09,15,49,22.30
2015,06,09,15,50,22.20
2015,06,09,15,51,22.10
2015,06,09,15,52,22.10
2015,06,09,15,53,22.10
2015,06,09,15,54,22.10
2015,06,09,15,55,22.10
2015,06,09,15,56,22.00
2015,06,09,15,57,21.90
2015,06,09,15,58,22.00
2015,06,09,15,59,22.00
2015,06,09,16,00,22.10
2015,06,09,16,01,22.10
2015,06,09,16,02,22.00
2015,06,09,16,03,21.90
2015,06,09,16,04,21.90
2015,06,09,16,05,21.90
2015,06,09,16,06,21.80
2015,06,09,16,07,21.70
2015,06,09,16,08,21.60
2015,06,09,16,09,21.60
2015,06,09,16,10,21.60
2015,06,09,16,11,21.60
2015,06,09,16,12,21.60
2015,06,09,16,13,21.60
2015,06,09,16,14,21.60
2015,06,09,16,15,21.60
2015,06,09,16,16,21.60
2015,06,09,16,17,21.60
2015,06,09,16,18,21.60
2015,06,09,16,19,21.60
2015,06,09,16,20,21.60
2015,06,09,16,21,21.60
2015,06,09,16,22,21.60
2015,06,09,16,23,21.60
2015,06,09,16,24,21.60
2015,06,09,16,25,21.70
2015,06,09,16,26,21.60
2015,06,09,16,27,21.50
2015,06,09,16,28,21.20
2015,06,09,16,29,21.10
2015,06,09,16,30,21.10
2015,06,09,16,31,21.00
2015,06,09,16,32,21.00
2015,06,09,16,33,20.90
2015,06,09,16,34,20.80
2015,06,09,16,35,20.90
2015,06,09,16,36,21.00
2015,06,09,16,37,21.10
2015,06,09,16,38,21.20
2015,06,09,16,39,21.30
2015,06,09,16,40,21.30
2015,06,09,16,41,21.30
2015,06,09,16,42,21.30
2015,06,09,16,43,21.30
2015,06,09,16,44,21.30
2015,06,09,16,45,21.30
2015,06,09,16,46,21.40
2015,06,09,16,47,21.40
2015,06,09,16,48,21.60
2015,06,09,16,49,21.70
2015,06,09,16,50,21.70
2015,06,09,16,51,21.80
2015,06,09,16,52,21.80
2015,06,09,16,53,21.90
2015,06,09,16,54,21.90
2015,06,09,16,55,21.90
2015,06,09,16,56,21.70
2015,06,09,16,57,21.60
2015,06,09,16,58,21.50
2015,06,09,16,59,21.40
2015,06,09,17,00,21.40
2015,06,09,17,01,21.40
2015,06,09,17,02,21.50
2015,06,09,17,03,21.60
2015,06,09,17,04,21.70
2015,06,09,17,05,21.70
2015,06,09,17,06,21.80
2015,06,09,17,07,21.70
2015,06,09,17,08,21.70
2015,06,09,17,09,21.80
2015,06,09,17,10,21.90
2015,06,09,17,11,22.00
2015,06,09,17,12,22.10
2015,06,09,17,13,22.10
2015,06,09,17,14,22.10
2015,06,09,17,15,22.00
2015,06,09,17,16,22.00
2015,06,09,17,17,21.90
2015,06,09,17,18,21.90
2015,06,09,17,19,21.90
2015,06,09,17,20,21.80
2015,06,09,17,21,21.80
2015,06,09,17,22,21.80
2015,06,09,17,23,21.70
2015,06,09,17,24,21.70
2015,06,09,17,25,21.50
2015,06,09,17,26,21.40
2015,06,09,17,27,21.30
2015,06,09,17,28,21.20
2015,06,09,17,29,21.20
2015,06,09,17,30,21.20
2015,06,09,17,31,21.10
2015,06,09,17,32,21.10
2015,06,09,17,33,21.20
2015,06,09,17,34,21.20
2015,06,09,17,35,21.20
2015,06,09,17,36,21.30
2015,06,09,17,37,21.30
2015,06,09,17,38,21.30
2015,06,09,17,39,21.30
2015,06,09,17,40,21.30
2015,06,09,17,41,21.30
2015,06,09,17,42,21.30
2015,06,09,17,43,21.30
2015,06,09,17,44,21.30
2015,06,09,17,45,21.30
2015,06,09,17,46,21.40
2015,06,09,17,47,21.50
2015,06,09,17,48,21.50
2015,06,09,17,49,21.40
2015,06,09,17,50,21.50
2015,06,09,17,51,21.60
2015,06,09,17,52,21.70
2015,06,09,17,53,21.70
2015,06,09,17,54,21.70
2015,06,09,17,55,21.70
2015,06,09,17,56,21.60
2015,06,09,17,57,21.60
2015,06,09,17,58,21.40
2015,06,09,17,59,21.30
2015,06,09,18,00,21.20
2015,06,09,18,01,21.20
2015,06,09,18,02,21.20
2015,06,09,18,03,21.10
2015,06,09,18,04,21.10
2015,06,09,18,05,21.20
2015,06,09,18,06,21.20
2015,06,09,18,07,21.20
2015,06,09,18,08,21.10
2015,06,09,18,09,21.10
2015,06,09,18,10,21.00
2015,06,09,18,11,20.90
2015,06,09,18,12,20.80
2015,06,09,18,13,20.70
2015,06,09,18,14,20.60
2015,06,09,18,15,20.60
2015,06,09,18,16,20.60
2015,06,09,18,17,20.60
2015,06,09,18,18,20.70
2015,06,09,18,19,20.70
2015,06,09,18,20,20.70
2015,06,09,18,21,20.70
2015,06,09,18,22,20.70
2015,06,09,18,23,20.70
2015,06,09,18,24,20.70
2015,06,09,18,25,20.70
2015,06,09,18,26,20.60
2015,06,09,18,27,20.60
2015,06,09,18,28,20.50
2015,06,09,18,29,20.50
2015,06,09,18,30,20.50
2015,06,09,18,31,20.50
2015,06,09,18,32,20.50
2015,06,09,18,33,20.50
2015,06,09,18,34,20.50
2015,06,09,18,35,20.60
2015,06,09,18,36,20.60
2015,06,09,18,37,20.70
2015,06,09,18,38,20.80
2015,06,09,18,39,20.80
2015,06,09,18,40,20.80
2015,06,09,18,41,20.80
2015,06,09,18,42,20.80
2015,06,09,18,43,20.90
2015,06,09,18,44,20.90
2015,06,09,18,45,20.90
2015,06,09,18,46,21.00
2015,06,09,18,47,21.00
2015,06,09,18,48,21.00
2015,06,09,18,49,21.00
2015,06,09,18,50,21.00
2015,06,09,18,51,21.00
2015,06,09,18,52,20.90
2015,06,09,18,53,20.90
2015,06,09,18,54,20.80
2015,06,09,18,55,20.70
2015,06,09,18,56,20.50
2015,06,09,18,57,20.40
2015,06,09,18,58,20.30
2015,06,09,18,59,20.20
2015,06,09,19,00,20.20
2015,06,09,19,01,20.20
2015,06,09,19,02,20.20
2015,06,09,19,03,20.30
2015,06,09,19,04,20.30
2015,06,09,19,05,20.30
2015,06,09,19,06,20.20
2015,06,09,19,07,20.20
2015,06,09,19,08,20.20
2015,06,09,19,09,20.20
2015,06,09,19,10,20.20
2015,06,09,19,11,20.20
2015,06,09,19,12,20.10
2015,06,09,19,13,20.10
2015,06,09,19,14,20.00
2015,06,09,19,15,19.90
2015,06,09,19,16,19.90
2015,06,09,19,17,19.90
2015,06,09,19,18,19.90
2015,06,09,19,19,19.80
2015,06,09,19,20,19.80
2015,06,09,19,21,19.70
2015,06,09,19,22,19.60
2015,06,09,19,23,19.60
2015,06,09,19,24,19.50
2015,06,09,19,25,19.50
2015,06,09,19,26,19.50
2015,06,09,19,27,19.40
2015,06,09,19,28,19.40
2015,06,09,19,29,19.40
2015,06,09,19,30,19.30
2015,06,09,19,31,19.30
2015,06,09,19,32,19.20
2015,06,09,19,33,19.20
2015,06,09,19,34,19.10
2015,06,09,19,35,19.10
2015,06,09,19,36,19.10
2015,06,09,19,37,19.10
2015,06,09,19,38,19.10
2015,06,09,19,39,19.10
2015,06,09,19,40,19.10
2015,06,09,19,41,19.10
2015,06,09,19,42,19.10
2015,06,09,19,43,19.10
2015,06,09,19,44,19.00
2015,06,09,19,45,18.90
2015,06,09,19,46,18.90
2015,06,09,19,47,18.90
2015,06,09,19,48,18.90
2015,06,09,19,49,18.90
2015,06,09,19,50,18.90
2015,06,09,19,51,18.90
2015,06,09,19,52,18.90
2015,06,09,19,53,18.80
2015,06,09,19,54,18.80
2015,06,09,19,55,18.70
2015,06,09,19,56,18.70
2015,06,09,19,57,18.60
2015,06,09,19,58,18.60
2015,06,09,19,59,18.50
2015,06,09,20,00,18.50
2015,06,09,20,01,18.40
2015,06,09,20,02,18.30
2015,06,09,20,03,18.20
2015,06,09,20,04,18.20
2015,06,09,20,05,18.20
2015,06,09,20,06,18.10
2015,06,09,20,07,18.10
2015,06,09,20,08,17.90
2015,06,09,20,09,17.90
2015,06,09,20,10,17.90
2015,06,09,20,11,17.90
2015,06,09,20,12,17.90
2015,06,09,20,13,17.80
2015,06,09,20,14,17.80
2015,06,09,20,15,17.80
2015,06,09,20,16,17.80
2015,06,09,20,17,17.70
2015,06,09,20,18,17.70
2015,06,09,20,19,17.70
2015,06,09,20,20,17.70
2015,06,09,20,21,17.60
2015,06,09,20,22,17.60
2015,06,09,20,23,17.60
2015,06,09,20,24,17.60
2015,06,09,20,25,17.60
2015,06,09,20,26,17.60
2015,06,09,20,27,17.60
2015,06,09,20,28,17.60
2015,06,09,20,29,17.60
2015,06,09,20,30,17.60
2015,06,09,20,31,17.60
2015,06,09,20,32,17.60
2015,06,09,20,33,17.60
2015,06,09,20,34,17.60
2015,06,09,20,35,17.60
2015,06,09,20,36,17.60
2015,06,09,20,37,17.60
2015,06,09,20,38,17.50
2015,06,09,20,39,17.50
2015,06,09,20,40,17.50
2015,06,09,20,41,17.40
2015,06,09,20,42,17.40
2015,06,09,20,43,17.30
2015,06,09,20,44,17.30
2015,06,09,20,45,17.30
2015,06,09,20,46,17.30
2015,06,09,20,47,17.20
2015,06,09,20,48,17.10
2015,06,09,20,49,17.10
2015,06,09,20,50,17.10
2015,06,09,20,51,17.00
2015,06,09,20,52,17.00
2015,06,09,20,53,17.00
2015,06,09,20,54,16.90
2015,06,09,20,55,16.90
2015,06,09,20,56,16.90
2015,06,09,20,57,16.80
2015,06,09,20,58,16.80
2015,06,09,20,59,16.80
2015,06,09,21,00,16.70
2015,06,09,21,01,16.70
2015,06,09,21,02,16.70
2015,06,09,21,03,16.70
2015,06,09,21,04,16.70
2015,06,09,21,05,16.70
2015,06,09,21,06,16.60
2015,06,09,21,07,16.60
2015,06,09,21,08,16.60
2015,06,09,21,09,16.60
2015,06,09,21,10,16.50
2015,06,09,21,11,16.40
2015,06,09,21,12,16.40
2015,06,09,21,13,16.40
2015,06,09,21,14,16.40
2015,06,09,21,15,16.40
2015,06,09,21,16,16.40
2015,06,09,21,17,16.40
2015,06,09,21,18,16.40
2015,06,09,21,19,16.40
2015,06,09,21,20,16.40
2015,06,09,21,21,16.40
2015,06,09,21,22,16.40
2015,06,09,21,23,16.40
2015,06,09,21,24,16.40
2015,06,09,21,25,16.40
2015,06,09,21,26,16.40
2015,06,09,21,27,16.40
2015,06,09,21,28,16.30
2015,06,09,21,29,16.30
2015,06,09,21,30,16.30
2015,06,09,21,31,16.30
2015,06,09,21,32,16.30
2015,06,09,21,33,16.30
2015,06,09,21,34,16.30
2015,06,09,21,35,16.20
2015,06,09,21,36,16.20
2015,06,09,21,37,16.20
2015,06,09,21,38,16.20
2015,06,09,21,39,16.20
2015,06,09,21,40,16.20
2015,06,09,21,41,16.20
2015,06,09,21,42,16.20
2015,06,09,21,43,16.10
2015,06,09,21,44,16.10
2015,06,09,21,45,16.10
2015,06,09,21,46,16.10
2015,06,09,21,47,16.10
2015,06,09,21,48,16.10
2015,06,09,21,49,16.10
2015,06,09,21,50,16.10
2015,06,09,21,51,16.10
2015,06,09,21,52,16.10
2015,06,09,21,53,15.90
2015,06,09,21,54,15.90
2015,06,09,21,55,15.90
2015,06,09,21,56,15.90
2015,06,09,21,57,15.80
2015,06,09,21,58,15.80
2015,06,09,21,59,15.80
2015,06,09,22,00,15.80
2015,06,09,22,01,15.80
2015,06,09,22,02,15.80
2015,06,09,22,03,15.70
2015,06,09,22,04,15.70
2015,06,09,22,05,15.70
2015,06,09,22,06,15.70
2015,06,09,22,07,15.70
2015,06,09,22,08,15.60
2015,06,09,22,09,15.70
2015,06,09,22,10,15.70
2015,06,09,22,11,15.70
2015,06,09,22,12,15.70
2015,06,09,22,13,15.80
2015,06,09,22,14,15.80
2015,06,09,22,15,15.90
2015,06,09,22,16,16.00
2015,06,09,22,17,16.10
2015,06,09,22,18,16.10
2015,06,09,22,19,16.10
2015,06,09,22,20,16.10
2015,06,09,22,21,16.10
2015,06,09,22,22,16.20
2015,06,09,22,23,16.20
2015,06,09,22,24,16.20
2015,06,09,22,25,16.20
2015,06,09,22,26,16.20
2015,06,09,22,27,16.20
2015,06,09,22,28,16.20
2015,06,09,22,29,16.10
2015,06,09,22,30,16.10
2015,06,09,22,31,16.10
2015,06,09,22,32,16.10
2015,06,09,22,33,16.10
2015,06,09,22,34,16.10
2015,06,09,22,35,16.10
2015,06,09,22,36,16.10
2015,06,09,22,37,16.00
2015,06,09,22,38,15.90
2015,06,09,22,39,15.90
2015,06,09,22,40,15.80
2015,06,09,22,41,15.80
2015,06,09,22,42,15.80
2015,06,09,22,43,15.80
2015,06,09,22,44,15.70
2015,06,09,22,45,15.70
2015,06,09,22,46,15.70
2015,06,09,22,47,15.60
2015,06,09,22,48,15.60
2015,06,09,22,49,15.60
2015,06,09,22,50,15.50
2015,06,09,22,51,15.50
2015,06,09,22,52,15.50
2015,06,09,22,53,15.50
2015,06,09,22,54,15.40
2015,06,09,22,55,15.40
2015,06,09,22,56,15.40
2015,06,09,22,57,15.30
2015,06,09,22,58,15.30
2015,06,09,22,59,15.30
2015,06,09,23,00,15.30
2015,06,09,23,01,15.30
2015,06,09,23,02,15.30
2015,06,09,23,03,15.30
2015,06,09,23,04,15.20
2015,06,09,23,05,15.20
2015,06,09,23,06,15.20
2015,06,09,23,07,15.20
2015,06,09,23,08,15.20
2015,06,09,23,09,15.20
2015,06,09,23,10,15.10
2015,06,09,23,11,15.10
2015,06,09,23,12,15.10
2015,06,09,23,13,15.10
2015,06,09,23,14,15.00
2015,06,09,23,15,15.00
2015,06,09,23,16,15.00
2015,06,09,23,17,15.00
2015,06,09,23,18,14.90
2015,06,09,23,19,14.90
2015,06,09,23,20,14.90
2015,06,09,23,21,14.90
2015,06,09,23,22,14.90
2015,06,09,23,23,14.90
2015,06,09,23,24,14.90
2015,06,09,23,25,14.90
2015,06,09,23,26,14.90
2015,06,09,23,27,14.90
2015,06,09,23,28,14.90
2015,06,09,23,29,14.90
2015,06,09,23,30,14.80
2015,06,09,23,31,14.80
2015,06,09,23,32,14.80
2015,06,09,23,33,14.90
2015,06,09,23,34,14.90
2015,06,09,23,35,14.90
2015,06,09,23,36,14.90
2015,06,09,23,37,14.90
2015,06,09,23,38,14.90
2015,06,09,23,39,14.80
2015,06,09,23,40,14.80
2015,06,09,23,41,14.80
2015,06,09,23,42,14.80
2015,06,09,23,43,14.80
2015,06,09,23,44,14.70
2015,06,09,23,45,14.70
2015,06,09,23,46,14.70
2015,06,09,23,47,14.70
2015,06,09,23,48,14.70
2015,06,09,23,49,14.70
2015,06,09,23,50,14.70
2015,06,09,23,51,14.70
2015,06,09,23,52,14.70
2015,06,09,23,53,14.70
2015,06,09,23,54,14.70
2015,06,09,23,55,14.60
2015,06,09,23,56,14.60
2015,06,09,23,57,14.60
2015,06,09,23,58,14.60
2015,06,09,23,59,14.60
